owner,sensor,date,latitude,longitude,sea_water_turbidity,qcFlag 
NERRS,ioos:station:NOAA.NERRS:marmbwq:1,2015-05-08T23:30:00Z,28.1384,-96.8285,18.0,1111122 
NERRS,ioos:station:NOAA.NERRS:marmbwq:1,2015-05-09T01:30:00Z,28.1384,-96.8285,24.0,1111122 
NERRS,ioos:station:NOAA.NERRS:marmbwq:1,2015-05-09T02:30:00Z,28.1384,-96.8285,24.0,1111122 
NERRS,ioos:station:NOAA.NERRS:marmbwq:1,2015-05-09T03:30:00Z,28.1384,-96.8285,23.0,1111122 
NERRS,ioos:station:NOAA.NERRS:marmbwq:1,2015-05-09T04:30:00Z,28.1384,-96.8285,24.0,1111122 
NERRS,ioos:station:NOAA.NERRS:marmbwq:1,2015-05-09T06:30:00Z,28.1384,-96.8285,38.0,1111122 
NERRS,ioos:station:NOAA.NERRS:marmbwq:1,2015-05-09T07:30:00Z,28.1384,-96.8285,41.0,1111122 
NERRS,ioos:station:NOAA.NERRS:marmbwq:1,2015-05-09T08:30:00Z,28.1384,-96.8285,68.0,1111122 
NERRS,ioos:station:NOAA.NERRS:marmbwq:1,2015-05-09T09:30:00Z,28.1384,-96.8285,64.0,1111122 
NERRS,ioos:station:NOAA.NERRS:marmbwq:1,2015-05-09T10:30:00Z,28.1384,-96.8285,39.0,1111122 
NERRS,ioos:station:NOAA.NERRS:marmbwq:1,2015-05-09T11:30:00Z,28.1384,-96.8285,27.0,1111122 
NERRS,ioos:station:NOAA.NERRS:marmbwq:1,2015-05-09T12:30:00Z,28.1384,-96.8285,31.0,1111122 
NERRS,ioos:station:NOAA.NERRS:marmbwq:1,2015-05-09T13:30:00Z,28.1384,-96.8285,29.0,1111122 
NERRS,ioos:station:NOAA.NERRS:marmbwq:1,2015-05-09T14:30:00Z,28.1384,-96.8285,46.0,1111122 
NERRS,ioos:station:NOAA.NERRS:marmbwq:1,2015-05-09T15:30:00Z,28.1384,-96.8285,64.0,1111122 
NERRS,ioos:station:NOAA.NERRS:marmbwq:1,2015-05-09T16:30:00Z,28.1384,-96.8285,70.0,1111122 
NERRS,ioos:station:NOAA.NERRS:marmbwq:1,2015-05-09T17:30:00Z,28.1384,-96.8285,75.0,1111122 
NERRS,ioos:station:NOAA.NERRS:marmbwq:1,2015-05-09T19:30:00Z,28.1384,-96.8285,84.0,1111122 
NERRS,ioos:station:NOAA.NERRS:marmbwq:1,2015-05-09T20:30:00Z,28.1384,-96.8285,88.0,1111122 
NERRS,ioos:station:NOAA.NERRS:marmbwq:1,2015-05-09T22:30:00Z,28.1384,-96.8285,99.0,1111122 
NERRS,ioos:station:NOAA.NERRS:marmbwq:1,2015-05-09T23:30:00Z,28.1384,-96.8285,105.0,1111122 
NERRS,ioos:station:NOAA.NERRS:marmbwq:1,2015-05-10T00:30:00Z,28.1384,-96.8285,100.0,1111122 
NERRS,ioos:station:NOAA.NERRS:marmbwq:1,2015-05-10T01:30:00Z,28.1384,-96.8285,114.0,1111122 
NERRS,ioos:station:NOAA.NERRS:marmbwq:1,2015-05-10T02:30:00Z,28.1384,-96.8285,105.0,1111122 
NERRS,ioos:station:NOAA.NERRS:marmbwq:1,2015-05-10T03:30:00Z,28.1384,-96.8285,105.0,1111122 
NERRS,ioos:station:NOAA.NERRS:marmbwq:1,2015-05-10T04:30:00Z,28.1384,-96.8285,128.0,1111122 
NERRS,ioos:station:NOAA.NERRS:marmbwq:1,2015-05-10T05:30:00Z,28.1384,-96.8285,104.0,1111122 
NERRS,ioos:station:NOAA.NERRS:marmbwq:1,2015-05-10T06:30:00Z,28.1384,-96.8285,101.0,1111122 
NERRS,ioos:station:NOAA.NERRS:marmbwq:1,2015-05-10T07:30:00Z,28.1384,-96.8285,101.0,1111122 
NERRS,ioos:station:NOAA.NERRS:marmbwq:1,2015-05-10T08:30:00Z,28.1384,-96.8285,124.0,1111122 
NERRS,ioos:station:NOAA.NERRS:marmbwq:1,2015-05-10T09:30:00Z,28.1384,-96.8285,143.0,1111122 
NERRS,ioos:station:NOAA.NERRS:marmbwq:1,2015-05-10T10:30:00Z,28.1384,-96.8285,154.0,1111122 
NERRS,ioos:station:NOAA.NERRS:marmbwq:1,2015-05-10T11:30:00Z,28.1384,-96.8285,175.0,1111122 
NERRS,ioos:station:NOAA.NERRS:marmbwq:1,2015-05-10T12:30:00Z,28.1384,-96.8285,171.0,1111122 
NERRS,ioos:station:NOAA.NERRS:marmbwq:1,2015-05-10T13:30:00Z,28.1384,-96.8285,188.0,1111122 
NERRS,ioos:station:NOAA.NERRS:marmbwq:1,2015-05-10T14:30:00Z,28.1384,-96.8285,188.0,1111122 
NERRS,ioos:station:NOAA.NERRS:marmbwq:1,2015-05-10T15:30:00Z,28.1384,-96.8285,180.0,1111122 
NERRS,ioos:station:NOAA.NERRS:marmbwq:1,2015-05-10T16:30:00Z,28.1384,-96.8285,159.0,1111122 
NERRS,ioos:station:NOAA.NERRS:marmbwq:1,2015-05-10T17:30:00Z,28.1384,-96.8285,132.0,1111122 
NERRS,ioos:station:NOAA.NERRS:marmbwq:1,2015-05-10T18:30:00Z,28.1384,-96.8285,104.0,1111122 
NERRS,ioos:station:NOAA.NERRS:marmbwq:1,2015-05-10T19:30:00Z,28.1384,-96.8285,69.0,1111122 
NERRS,ioos:station:NOAA.NERRS:marmbwq:1,2015-05-10T20:30:00Z,28.1384,-96.8285,46.0,1111122 
NERRS,ioos:station:NOAA.NERRS:marmbwq:1,2015-05-10T21:30:00Z,28.1384,-96.8285,40.0,1111122 
NERRS,ioos:station:NOAA.NERRS:marmbwq:1,2015-05-10T22:30:00Z,28.1384,-96.8285,44.0,1111122 
NERRS,ioos:station:NOAA.NERRS:marmbwq:1,2015-05-10T23:30:00Z,28.1384,-96.8285,51.0,1111122 
NERRS,ioos:station:NOAA.NERRS:marmbwq:1,2015-05-11T00:30:00Z,28.1384,-96.8285,91.0,1111122 
NERRS,ioos:station:NOAA.NERRS:marmbwq:1,2015-05-11T01:30:00Z,28.1384,-96.8285,122.0,1111122 
NERRS,ioos:station:NOAA.NERRS:marmbwq:1,2015-05-11T02:30:00Z,28.1384,-96.8285,90.0,1111122 
NERRS,ioos:station:NOAA.NERRS:marmbwq:1,2015-05-11T03:30:00Z,28.1384,-96.8285,84.0,1111122 
NERRS,ioos:station:NOAA.NERRS:marmbwq:1,2015-05-11T04:30:00Z,28.1384,-96.8285,109.0,1111122 
NERRS,ioos:station:NOAA.NERRS:marmbwq:1,2015-05-11T05:30:00Z,28.1384,-96.8285,92.0,1111122 
NERRS,ioos:station:NOAA.NERRS:marmbwq:1,2015-05-11T07:30:00Z,28.1384,-96.8285,122.0,1111122 
NERRS,ioos:station:NOAA.NERRS:marmbwq:1,2015-05-11T08:30:00Z,28.1384,-96.8285,114.0,1111122 
NERRS,ioos:station:NOAA.NERRS:marmbwq:1,2015-05-11T09:30:00Z,28.1384,-96.8285,66.0,1111122 
NERRS,ioos:station:NOAA.NERRS:marmbwq:1,2015-05-11T10:30:00Z,28.1384,-96.8285,56.0,1111122 
NERRS,ioos:station:NOAA.NERRS:marmbwq:1,2015-05-11T11:30:00Z,28.1384,-96.8285,64.0,1111122 
NERRS,ioos:station:NOAA.NERRS:marmbwq:1,2015-05-11T12:30:00Z,28.1384,-96.8285,49.0,1111122 
NERRS,ioos:station:NOAA.NERRS:marmbwq:1,2015-05-11T13:30:00Z,28.1384,-96.8285,58.0,1111122 
NERRS,ioos:station:NOAA.NERRS:marmbwq:1,2015-05-11T14:30:00Z,28.1384,-96.8285,44.0,1111122 
NERRS,ioos:station:NOAA.NERRS:marmbwq:1,2015-05-11T15:30:00Z,28.1384,-96.8285,31.0,1111122 
NERRS,ioos:station:NOAA.NERRS:marmbwq:1,2015-05-11T16:30:00Z,28.1384,-96.8285,30.0,1111122 
NERRS,ioos:station:NOAA.NERRS:marmbwq:1,2015-05-11T17:30:00Z,28.1384,-96.8285,24.0,1111122 
NERRS,ioos:station:NOAA.NERRS:marmbwq:1,2015-05-11T18:30:00Z,28.1384,-96.8285,23.0,1111122 
NERRS,ioos:station:NOAA.NERRS:marmbwq:1,2015-05-11T19:30:00Z,28.1384,-96.8285,19.0,1111122 
NERRS,ioos:station:NOAA.NERRS:marmbwq:1,2015-05-11T20:30:00Z,28.1384,-96.8285,18.0,1111122 
NERRS,ioos:station:NOAA.NERRS:marmbwq:1,2015-05-11T22:30:00Z,28.1384,-96.8285,32.0,1111122 
NERRS,ioos:station:NOAA.NERRS:marmbwq:1,2015-05-11T23:30:00Z,28.1384,-96.8285,41.0,1111122 
NERRS,ioos:station:NOAA.NERRS:marmbwq:1,2015-05-12T00:30:00Z,28.1384,-96.8285,39.0,1111122 
NERRS,ioos:station:NOAA.NERRS:marmbwq:1,2015-05-12T01:30:00Z,28.1384,-96.8285,60.0,1111122 
NERRS,ioos:station:NOAA.NERRS:marmbwq:1,2015-05-12T02:30:00Z,28.1384,-96.8285,74.0,1111122 
NERRS,ioos:station:NOAA.NERRS:marmbwq:1,2015-05-12T03:30:00Z,28.1384,-96.8285,76.0,1111122 
NERRS,ioos:station:NOAA.NERRS:marmbwq:1,2015-05-12T04:30:00Z,28.1384,-96.8285,81.0,1111122 
NERRS,ioos:station:NOAA.NERRS:marmbwq:1,2015-05-12T05:30:00Z,28.1384,-96.8285,85.0,1111122 
NERRS,ioos:station:NOAA.NERRS:marmbwq:1,2015-05-12T07:30:00Z,28.1384,-96.8285,108.0,1111122 
NERRS,ioos:station:NOAA.NERRS:marmbwq:1,2015-05-12T08:30:00Z,28.1384,-96.8285,127.0,1111122 
NERRS,ioos:station:NOAA.NERRS:marmbwq:1,2015-05-12T09:30:00Z,28.1384,-96.8285,137.0,1111122 
NERRS,ioos:station:NOAA.NERRS:marmbwq:1,2015-05-12T10:30:00Z,28.1384,-96.8285,169.0,1111122 
NERRS,ioos:station:NOAA.NERRS:marmbwq:1,2015-05-12T11:30:00Z,28.1384,-96.8285,164.0,1111122 
NERRS,ioos:station:NOAA.NERRS:marmbwq:1,2015-05-12T12:30:00Z,28.1384,-96.8285,117.0,1111122 
NERRS,ioos:station:NOAA.NERRS:marmbwq:1,2015-05-12T13:30:00Z,28.1384,-96.8285,119.0,1111122 
NERRS,ioos:station:NOAA.NERRS:marmbwq:1,2015-05-12T14:30:00Z,28.1384,-96.8285,134.0,1111122 
NERRS,ioos:station:NOAA.NERRS:marmbwq:1,2015-05-12T15:30:00Z,28.1384,-96.8285,94.0,1111122 
NERRS,ioos:station:NOAA.NERRS:marmbwq:1,2015-05-12T16:30:00Z,28.1384,-96.8285,42.0,1111122 
NERRS,ioos:station:NOAA.NERRS:marmbwq:1,2015-05-12T17:30:00Z,28.1384,-96.8285,38.0,1111122 
NERRS,ioos:station:NOAA.NERRS:marmbwq:1,2015-05-12T18:30:00Z,28.1384,-96.8285,19.0,1111122 
NERRS,ioos:station:NOAA.NERRS:marmbwq:1,2015-05-12T19:30:00Z,28.1384,-96.8285,15.0,1111122 
NERRS,ioos:station:NOAA.NERRS:marmbwq:1,2015-05-12T20:30:00Z,28.1384,-96.8285,16.0,1111122 
NERRS,ioos:station:NOAA.NERRS:marmbwq:1,2015-05-12T21:30:00Z,28.1384,-96.8285,13.0,1111122 
NERRS,ioos:station:NOAA.NERRS:marmbwq:1,2015-05-12T22:30:00Z,28.1384,-96.8285,11.0,1111122 
NERRS,ioos:station:NOAA.NERRS:marmbwq:1,2015-05-13T00:30:00Z,28.1384,-96.8285,18.0,1111122 
NERRS,ioos:station:NOAA.NERRS:marmbwq:1,2015-05-13T01:30:00Z,28.1384,-96.8285,18.0,1111122 
NERRS,ioos:station:NOAA.NERRS:marmbwq:1,2015-05-13T02:30:00Z,28.1384,-96.8285,13.0,1111122 
NERRS,ioos:station:NOAA.NERRS:marmbwq:1,2015-05-13T03:30:00Z,28.1384,-96.8285,12.0,1111122 
NERRS,ioos:station:NOAA.NERRS:marmbwq:1,2015-05-13T04:30:00Z,28.1384,-96.8285,13.0,1111122 
NERRS,ioos:station:NOAA.NERRS:marmbwq:1,2015-05-13T05:30:00Z,28.1384,-96.8285,11.0,1111122 
NERRS,ioos:station:NOAA.NERRS:marmbwq:1,2015-05-13T07:30:00Z,28.1384,-96.8285,27.0,1111122 
NERRS,ioos:station:NOAA.NERRS:marmbwq:1,2015-05-13T08:30:00Z,28.1384,-96.8285,124.0,1111122 
NERRS,ioos:station:NOAA.NERRS:marmbwq:1,2015-05-13T10:30:00Z,28.1384,-96.8285,142.0,1111122 
NERRS,ioos:station:NOAA.NERRS:marmbwq:1,2015-05-13T12:30:00Z,28.1384,-96.8285,114.0,1111122 
NERRS,ioos:station:NOAA.NERRS:marmbwq:1,2015-05-13T13:30:00Z,28.1384,-96.8285,123.0,1111122 
NERRS,ioos:station:NOAA.NERRS:marmbwq:1,2015-05-13T14:30:00Z,28.1384,-96.8285,78.0,1111122 
NERRS,ioos:station:NOAA.NERRS:marmbwq:1,2015-05-13T15:30:00Z,28.1384,-96.8285,60.0,1111122 
NERRS,ioos:station:NOAA.NERRS:marmbwq:1,2015-05-13T16:30:00Z,28.1384,-96.8285,50.0,1111122 
NERRS,ioos:station:NOAA.NERRS:marmbwq:1,2015-05-13T17:30:00Z,28.1384,-96.8285,39.0,1111122 
NERRS,ioos:station:NOAA.NERRS:marmbwq:1,2015-05-13T18:30:00Z,28.1384,-96.8285,46.0,1111122 
NERRS,ioos:station:NOAA.NERRS:marmbwq:1,2015-05-13T19:30:00Z,28.1384,-96.8285,37.0,1111122 
NERRS,ioos:station:NOAA.NERRS:marmbwq:1,2015-05-13T20:30:00Z,28.1384,-96.8285,26.0,1111122 
NERRS,ioos:station:NOAA.NERRS:marmbwq:1,2015-05-13T21:30:00Z,28.1384,-96.8285,22.0,1111122 
NERRS,ioos:station:NOAA.NERRS:marmbwq:1,2015-05-13T23:00:00Z,28.1384,-96.8285,18.0,1111122 
NERRS,ioos:station:NOAA.NERRS:marmbwq:1,2015-05-14T00:30:00Z,28.1384,-96.8285,16.0,1111122 
NERRS,ioos:station:NOAA.NERRS:marmbwq:1,2015-05-14T01:30:00Z,28.1384,-96.8285,16.0,1111122 
NERRS,ioos:station:NOAA.NERRS:marmbwq:1,2015-05-14T02:30:00Z,28.1384,-96.8285,15.0,1111122 
NERRS,ioos:station:NOAA.NERRS:marmbwq:1,2015-05-14T04:30:00Z,28.1384,-96.8285,13.0,1111122 
NERRS,ioos:station:NOAA.NERRS:marmbwq:1,2015-05-14T05:30:00Z,28.1384,-96.8285,14.0,1111122 
NERRS,ioos:station:NOAA.NERRS:marmbwq:1,2015-05-14T06:30:00Z,28.1384,-96.8285,15.0,1111122 
NERRS,ioos:station:NOAA.NERRS:marmbwq:1,2015-05-14T08:30:00Z,28.1384,-96.8285,12.0,1111122 
NERRS,ioos:station:NOAA.NERRS:marmbwq:1,2015-05-14T09:30:00Z,28.1384,-96.8285,11.0,1111122 
NERRS,ioos:station:NOAA.NERRS:marmbwq:1,2015-05-14T10:30:00Z,28.1384,-96.8285,12.0,1111122 
NERRS,ioos:station:NOAA.NERRS:marmbwq:1,2015-05-14T11:30:00Z,28.1384,-96.8285,11.0,1111122 
NERRS,ioos:station:NOAA.NERRS:marmbwq:1,2015-05-14T12:30:00Z,28.1384,-96.8285,13.0,1111122 
NERRS,ioos:station:NOAA.NERRS:marmbwq:1,2015-05-14T13:30:00Z,28.1384,-96.8285,11.0,1111122 
NERRS,ioos:station:NOAA.NERRS:marmbwq:1,2015-05-14T14:30:00Z,28.1384,-96.8285,11.0,1111122 
NERRS,ioos:station:NOAA.NERRS:marmbwq:1,2015-05-14T15:30:00Z,28.1384,-96.8285,11.0,1111122 
NERRS,ioos:station:NOAA.NERRS:marmbwq:1,2015-05-14T16:30:00Z,28.1384,-96.8285,10.0,1111122 
NERRS,ioos:station:NOAA.NERRS:marmbwq:1,2015-05-14T17:30:00Z,28.1384,-96.8285,11.0,1111122 
NERRS,ioos:station:NOAA.NERRS:marmbwq:1,2015-05-14T18:30:00Z,28.1384,-96.8285,10.0,1111122 
NERRS,ioos:station:NOAA.NERRS:marmbwq:1,2015-05-14T19:30:00Z,28.1384,-96.8285,10.0,1111122 
NERRS,ioos:station:NOAA.NERRS:marmbwq:1,2015-05-14T20:30:00Z,28.1384,-96.8285,10.0,1111122 
NERRS,ioos:station:NOAA.NERRS:marmbwq:1,2015-05-14T21:30:00Z,28.1384,-96.8285,10.0,1111122 
NERRS,ioos:station:NOAA.NERRS:marmbwq:1,2015-05-14T22:30:00Z,28.1384,-96.8285,10.0,1111122 
NERRS,ioos:station:NOAA.NERRS:marmbwq:1,2015-05-14T23:30:00Z,28.1384,-96.8285,9.0,1111122 
NERRS,ioos:station:NOAA.NERRS:marmbwq:1,2015-05-15T00:30:00Z,28.1384,-96.8285,8.0,1111122 
NERRS,ioos:station:NOAA.NERRS:marmbwq:1,2015-05-15T01:30:00Z,28.1384,-96.8285,8.0,1111122 
NERRS,ioos:station:NOAA.NERRS:marmbwq:1,2015-05-15T02:30:00Z,28.1384,-96.8285,7.0,1111122 
NERRS,ioos:station:NOAA.NERRS:marmbwq:1,2015-05-15T03:30:00Z,28.1384,-96.8285,7.0,1111122 
NERRS,ioos:station:NOAA.NERRS:marmbwq:1,2015-05-15T04:30:00Z,28.1384,-96.8285,7.0,1111122 
NERRS,ioos:station:NOAA.NERRS:marmbwq:1,2015-05-15T05:30:00Z,28.1384,-96.8285,7.0,1111122 
NERRS,ioos:station:NOAA.NERRS:marmbwq:1,2015-05-15T07:30:00Z,28.1384,-96.8285,29.0,1111122 
NERRS,ioos:station:NOAA.NERRS:marmbwq:1,2015-05-15T08:30:00Z,28.1384,-96.8285,7.0,1111122 
NERRS,ioos:station:NOAA.NERRS:marmbwq:1,2015-05-15T09:30:00Z,28.1384,-96.8285,8.0,1111122 
NERRS,ioos:station:NOAA.NERRS:marmbwq:1,2015-05-15T10:30:00Z,28.1384,-96.8285,8.0,1111122 
NERRS,ioos:station:NOAA.NERRS:marmbwq:1,2015-05-15T11:30:00Z,28.1384,-96.8285,8.0,1111122 
NERRS,ioos:station:NOAA.NERRS:marmbwq:1,2015-05-15T12:30:00Z,28.1384,-96.8285,9.0,1111122 
NERRS,ioos:station:NOAA.NERRS:marmbwq:1,2015-05-15T14:30:00Z,28.1384,-96.8285,10.0,1111122 
NERRS,ioos:station:NOAA.NERRS:marmbwq:1,2015-05-15T17:30:00Z,28.1384,-96.8285,15.0,1111122 
NERRS,ioos:station:NOAA.NERRS:marmbwq:1,2015-05-15T18:30:00Z,28.1384,-96.8285,16.0,1111122 
NERRS,ioos:station:NOAA.NERRS:marmbwq:1,2015-05-15T19:30:00Z,28.1384,-96.8285,14.0,1111122 
NERRS,ioos:station:NOAA.NERRS:marmbwq:1,2015-05-15T20:30:00Z,28.1384,-96.8285,12.0,1111122 
NERRS,ioos:station:NOAA.NERRS:marmbwq:1,2015-05-15T21:30:00Z,28.1384,-96.8285,17.0,1111122 
NERRS,ioos:station:NOAA.NERRS:marmbwq:1,2015-05-15T22:30:00Z,28.1384,-96.8285,29.0,1111122 
NERRS,ioos:station:NOAA.NERRS:marmbwq:1,2015-05-15T23:30:00Z,28.1384,-96.8285,42.0,1111122 
NERRS,ioos:station:NOAA.NERRS:marmbwq:1,2015-05-16T00:30:00Z,28.1384,-96.8285,49.0,1111122 
NERRS,ioos:station:NOAA.NERRS:marmbwq:1,2015-05-16T01:30:00Z,28.1384,-96.8285,64.0,1111122 
NERRS,ioos:station:NOAA.NERRS:marmbwq:1,2015-05-16T03:30:00Z,28.1384,-96.8285,40.0,1111122 
NERRS,ioos:station:NOAA.NERRS:marmbwq:1,2015-05-16T04:30:00Z,28.1384,-96.8285,34.0,1111122 
NERRS,ioos:station:NOAA.NERRS:marmbwq:1,2015-05-16T05:30:00Z,28.1384,-96.8285,27.0,1111122 
NERRS,ioos:station:NOAA.NERRS:marmbwq:1,2015-05-16T07:30:00Z,28.1384,-96.8285,24.0,1111122 
NERRS,ioos:station:NOAA.NERRS:marmbwq:1,2015-05-16T09:30:00Z,28.1384,-96.8285,19.0,1111122 
NERRS,ioos:station:NOAA.NERRS:marmbwq:1,2015-05-16T10:30:00Z,28.1384,-96.8285,19.0,1111122 
NERRS,ioos:station:NOAA.NERRS:marmbwq:1,2015-05-16T11:30:00Z,28.1384,-96.8285,19.0,1111122 
NERRS,ioos:station:NOAA.NERRS:marmbwq:1,2015-05-16T12:30:00Z,28.1384,-96.8285,18.0,1111122 
NERRS,ioos:station:NOAA.NERRS:marmbwq:1,2015-05-16T13:30:00Z,28.1384,-96.8285,21.0,1111122 
NERRS,ioos:station:NOAA.NERRS:marmbwq:1,2015-05-16T14:30:00Z,28.1384,-96.8285,28.0,1111122 
NERRS,ioos:station:NOAA.NERRS:marmbwq:1,2015-05-16T15:30:00Z,28.1384,-96.8285,37.0,1111122 
NERRS,ioos:station:NOAA.NERRS:marmbwq:1,2015-05-16T16:30:00Z,28.1384,-96.8285,71.0,1111122 
NERRS,ioos:station:NOAA.NERRS:marmbwq:1,2015-05-16T17:30:00Z,28.1384,-96.8285,101.0,1111122 
NERRS,ioos:station:NOAA.NERRS:marmbwq:1,2015-05-16T18:30:00Z,28.1384,-96.8285,122.0,1111122 
NERRS,ioos:station:NOAA.NERRS:marmbwq:1,2015-05-16T19:30:00Z,28.1384,-96.8285,126.0,1111122 
NERRS,ioos:station:NOAA.NERRS:marmbwq:1,2015-05-16T20:30:00Z,28.1384,-96.8285,137.0,1111122 
NERRS,ioos:station:NOAA.NERRS:marmbwq:1,2015-05-16T21:30:00Z,28.1384,-96.8285,145.0,1111122 
NERRS,ioos:station:NOAA.NERRS:marmbwq:1,2015-05-16T22:30:00Z,28.1384,-96.8285,145.0,1111122 
NERRS,ioos:station:NOAA.NERRS:marmbwq:1,2015-05-16T23:30:00Z,28.1384,-96.8285,136.0,1111122 
NERRS,ioos:station:NOAA.NERRS:marmbwq:1,2015-05-17T00:30:00Z,28.1384,-96.8285,121.0,1111122 
NERRS,ioos:station:NOAA.NERRS:marmbwq:1,2015-05-17T01:30:00Z,28.1384,-96.8285,101.0,1111122 
NERRS,ioos:station:NOAA.NERRS:marmbwq:1,2015-05-17T02:30:00Z,28.1384,-96.8285,72.0,1111122 
NERRS,ioos:station:NOAA.NERRS:marmbwq:1,2015-05-17T03:30:00Z,28.1384,-96.8285,118.0,1111122 
NERRS,ioos:station:NOAA.NERRS:marmbwq:1,2015-05-17T04:30:00Z,28.1384,-96.8285,101.0,1111122 
NERRS,ioos:station:NOAA.NERRS:marmbwq:1,2015-05-17T05:30:00Z,28.1384,-96.8285,110.0,1111122 
NERRS,ioos:station:NOAA.NERRS:marmbwq:1,2015-05-17T07:30:00Z,28.1384,-96.8285,133.0,1111122 
NERRS,ioos:station:NOAA.NERRS:marmbwq:1,2015-05-17T08:30:00Z,28.1384,-96.8285,132.0,1111122 
NERRS,ioos:station:NOAA.NERRS:marmbwq:1,2015-05-17T09:30:00Z,28.1384,-96.8285,174.0,1111122 
NERRS,ioos:station:NOAA.NERRS:marmbwq:1,2015-05-17T10:30:00Z,28.1384,-96.8285,164.0,1111122 
NERRS,ioos:station:NOAA.NERRS:marmbwq:1,2015-05-17T11:30:00Z,28.1384,-96.8285,164.0,1111122 
NERRS,ioos:station:NOAA.NERRS:marmbwq:1,2015-05-17T13:30:00Z,28.1384,-96.8285,169.0,1111122 
NERRS,ioos:station:NOAA.NERRS:marmbwq:1,2015-05-17T14:30:00Z,28.1384,-96.8285,168.0,1111122 
NERRS,ioos:station:NOAA.NERRS:marmbwq:1,2015-05-17T15:30:00Z,28.1384,-96.8285,120.0,1111122 
NERRS,ioos:station:NOAA.NERRS:marmbwq:1,2015-05-17T16:30:00Z,28.1384,-96.8285,82.0,1111122 
NERRS,ioos:station:NOAA.NERRS:marmbwq:1,2015-05-17T17:30:00Z,28.1384,-96.8285,32.0,1111122 
NERRS,ioos:station:NOAA.NERRS:marmbwq:1,2015-05-17T18:30:00Z,28.1384,-96.8285,23.0,1111122 
NERRS,ioos:station:NOAA.NERRS:marmbwq:1,2015-05-17T19:30:00Z,28.1384,-96.8285,31.0,1111122 
NERRS,ioos:station:NOAA.NERRS:marmbwq:1,2015-05-17T20:30:00Z,28.1384,-96.8285,32.0,1111122 
NERRS,ioos:station:NOAA.NERRS:marmbwq:1,2015-05-17T22:30:00Z,28.1384,-96.8285,34.0,1111122 
NERRS,ioos:station:NOAA.NERRS:marmbwq:1,2015-05-17T23:30:00Z,28.1384,-96.8285,30.0,1111122 
NERRS,ioos:station:NOAA.NERRS:marmbwq:1,2015-05-18T00:30:00Z,28.1384,-96.8285,36.0,1111122 
NERRS,ioos:station:NOAA.NERRS:marmbwq:1,2015-05-18T01:30:00Z,28.1384,-96.8285,36.0,1111122 
NERRS,ioos:station:NOAA.NERRS:marmbwq:1,2015-05-18T03:30:00Z,28.1384,-96.8285,45.0,1111122 
NERRS,ioos:station:NOAA.NERRS:marmbwq:1,2015-05-18T04:30:00Z,28.1384,-96.8285,58.0,1111122 
NERRS,ioos:station:NOAA.NERRS:marmbwq:1,2015-05-18T05:30:00Z,28.1384,-96.8285,69.0,1111122 
NERRS,ioos:station:NOAA.NERRS:marmbwq:1,2015-05-18T07:30:00Z,28.1384,-96.8285,56.0,1111122 
NERRS,ioos:station:NOAA.NERRS:marmbwq:1,2015-05-18T08:30:00Z,28.1384,-96.8285,56.0,1111122 
NERRS,ioos:station:NOAA.NERRS:marmbwq:1,2015-05-18T09:30:00Z,28.1384,-96.8285,42.0,1111122 
NERRS,ioos:station:NOAA.NERRS:marmbwq:1,2015-05-18T10:30:00Z,28.1384,-96.8285,39.0,1111122 
NERRS,ioos:station:NOAA.NERRS:marmbwq:1,2015-05-18T11:30:00Z,28.1384,-96.8285,38.0,1111122 
NERRS,ioos:station:NOAA.NERRS:marmbwq:1,2015-05-18T12:30:00Z,28.1384,-96.8285,32.0,1111122 
NERRS,ioos:station:NOAA.NERRS:marmbwq:1,2015-05-18T13:30:00Z,28.1384,-96.8285,28.0,1111122 
NERRS,ioos:station:NOAA.NERRS:marmbwq:1,2015-05-18T14:30:00Z,28.1384,-96.8285,25.0,1111122 
NERRS,ioos:station:NOAA.NERRS:marmbwq:1,2015-05-18T15:30:00Z,28.1384,-96.8285,22.0,1111122 
NERRS,ioos:station:NOAA.NERRS:marmbwq:1,2015-05-18T16:30:00Z,28.1384,-96.8285,21.0,1111122 
NERRS,ioos:station:NOAA.NERRS:marmbwq:1,2015-05-18T17:30:00Z,28.1384,-96.8285,18.0,1111122 
NERRS,ioos:station:NOAA.NERRS:marmbwq:1,2015-05-18T18:30:00Z,28.1384,-96.8285,17.0,1111122 
NERRS,ioos:station:NOAA.NERRS:marmbwq:1,2015-05-18T19:30:00Z,28.1384,-96.8285,13.0,1111122 
NERRS,ioos:station:NOAA.NERRS:marmbwq:1,2015-05-18T20:30:00Z,28.1384,-96.8285,14.0,1111122 
NERRS,ioos:station:NOAA.NERRS:marmbwq:1,2015-05-18T21:30:00Z,28.1384,-96.8285,15.0,1111122 
NERRS,ioos:station:NOAA.NERRS:marmbwq:1,2015-05-18T22:30:00Z,28.1384,-96.8285,16.0,1111122 
NERRS,ioos:station:NOAA.NERRS:marmbwq:1,2015-05-18T23:30:00Z,28.1384,-96.8285,19.0,1111122 
NERRS,ioos:station:NOAA.NERRS:marmbwq:1,2015-05-19T00:30:00Z,28.1384,-96.8285,25.0,1111122 
NERRS,ioos:station:NOAA.NERRS:marmbwq:1,2015-05-19T01:30:00Z,28.1384,-96.8285,33.0,1111122 
NERRS,ioos:station:NOAA.NERRS:marmbwq:1,2015-05-19T02:30:00Z,28.1384,-96.8285,40.0,1111122 
NERRS,ioos:station:NOAA.NERRS:marmbwq:1,2015-05-19T03:30:00Z,28.1384,-96.8285,43.0,1111122 
NERRS,ioos:station:NOAA.NERRS:marmbwq:1,2015-05-19T04:30:00Z,28.1384,-96.8285,46.0,1111122 
NERRS,ioos:station:NOAA.NERRS:marmbwq:1,2015-05-19T07:30:00Z,28.1384,-96.8285,36.0,1111122 
NERRS,ioos:station:NOAA.NERRS:marmbwq:1,2015-05-19T08:30:00Z,28.1384,-96.8285,40.0,1111122 
NERRS,ioos:station:NOAA.NERRS:marmbwq:1,2015-05-19T09:30:00Z,28.1384,-96.8285,35.0,1111122 
NERRS,ioos:station:NOAA.NERRS:marmbwq:1,2015-05-19T10:30:00Z,28.1384,-96.8285,35.0,1111122 
NERRS,ioos:station:NOAA.NERRS:marmbwq:1,2015-05-19T11:30:00Z,28.1384,-96.8285,29.0,1111122 
NERRS,ioos:station:NOAA.NERRS:marmbwq:1,2015-05-19T12:30:00Z,28.1384,-96.8285,31.0,1111122 
NERRS,ioos:station:NOAA.NERRS:marmbwq:1,2015-05-19T13:30:00Z,28.1384,-96.8285,28.0,1111122 
NERRS,ioos:station:NOAA.NERRS:marmbwq:1,2015-05-19T14:30:00Z,28.1384,-96.8285,34.0,1111122 
NERRS,ioos:station:NOAA.NERRS:marmbwq:1,2015-05-19T15:30:00Z,28.1384,-96.8285,42.0,1111122 
NERRS,ioos:station:NOAA.NERRS:marmbwq:1,2015-05-19T16:30:00Z,28.1384,-96.8285,38.0,1111122 
NERRS,ioos:station:NOAA.NERRS:marmbwq:1,2015-05-19T17:30:00Z,28.1384,-96.8285,40.0,1111122 
NERRS,ioos:station:NOAA.NERRS:marmbwq:1,2015-05-19T18:30:00Z,28.1384,-96.8285,44.0,1111122 
NERRS,ioos:station:NOAA.NERRS:marmbwq:1,2015-05-19T19:30:00Z,28.1384,-96.8285,43.0,1111122 
NERRS,ioos:station:NOAA.NERRS:marmbwq:1,2015-05-19T20:30:00Z,28.1384,-96.8285,49.0,1111122 
NERRS,ioos:station:NOAA.NERRS:marmbwq:1,2015-05-19T21:30:00Z,28.1384,-96.8285,46.0,1111122 
NERRS,ioos:station:NOAA.NERRS:marmbwq:1,2015-05-19T22:30:00Z,28.1384,-96.8285,45.0,1111122 
NERRS,ioos:station:NOAA.NERRS:marmbwq:1,2015-05-19T23:30:00Z,28.1384,-96.8285,37.0,1111122 
NERRS,ioos:station:NOAA.NERRS:marmbwq:1,2015-05-20T00:30:00Z,28.1384,-96.8285,66.0,1111122 
NERRS,ioos:station:NOAA.NERRS:marmbwq:1,2015-05-20T01:30:00Z,28.1384,-96.8285,67.0,1111122 
NERRS,ioos:station:NOAA.NERRS:marmbwq:1,2015-05-20T02:30:00Z,28.1384,-96.8285,63.0,1111122 
NERRS,ioos:station:NOAA.NERRS:marmbwq:1,2015-05-20T03:30:00Z,28.1384,-96.8285,66.0,1111122 
NERRS,ioos:station:NOAA.NERRS:marmbwq:1,2015-05-20T04:30:00Z,28.1384,-96.8285,63.0,1111122 
NERRS,ioos:station:NOAA.NERRS:marmbwq:1,2015-05-20T05:30:00Z,28.1384,-96.8285,59.0,1111122 
NERRS,ioos:station:NOAA.NERRS:marmbwq:1,2015-05-20T07:30:00Z,28.1384,-96.8285,86.0,1111122 
NERRS,ioos:station:NOAA.NERRS:marmbwq:1,2015-05-20T08:30:00Z,28.1384,-96.8285,95.0,1111122 
NERRS,ioos:station:NOAA.NERRS:marmbwq:1,2015-05-20T09:30:00Z,28.1384,-96.8285,96.0,1111122 
NERRS,ioos:station:NOAA.NERRS:marmbwq:1,2015-05-20T10:30:00Z,28.1384,-96.8285,99.0,1111122 
NERRS,ioos:station:NOAA.NERRS:marmbwq:1,2015-05-20T11:30:00Z,28.1384,-96.8285,79.0,1111122 
NERRS,ioos:station:NOAA.NERRS:marmbwq:1,2015-05-20T12:30:00Z,28.1384,-96.8285,94.0,1111122 
NERRS,ioos:station:NOAA.NERRS:marmbwq:1,2015-05-20T13:30:00Z,28.1384,-96.8285,37.0,1111122 
NERRS,ioos:station:NOAA.NERRS:marmbwq:1,2015-05-20T14:30:00Z,28.1384,-96.8285,33.0,1111122 
NERRS,ioos:station:NOAA.NERRS:marmbwq:1,2015-05-20T15:30:00Z,28.1384,-96.8285,31.0,1111122 
NERRS,ioos:station:NOAA.NERRS:marmbwq:1,2015-05-20T16:30:00Z,28.1384,-96.8285,29.0,1111122 
NERRS,ioos:station:NOAA.NERRS:marmbwq:1,2015-05-20T17:30:00Z,28.1384,-96.8285,25.0,1111122 
NERRS,ioos:station:NOAA.NERRS:marmbwq:1,2015-05-20T18:30:00Z,28.1384,-96.8285,60.0,1111122 
NERRS,ioos:station:NOAA.NERRS:marmbwq:1,2015-05-20T19:30:00Z,28.1384,-96.8285,20.0,1111122 
NERRS,ioos:station:NOAA.NERRS:marmbwq:1,2015-05-20T20:30:00Z,28.1384,-96.8285,16.0,1111122 
NERRS,ioos:station:NOAA.NERRS:marmbwq:1,2015-05-20T23:30:00Z,28.1384,-96.8285,10.0,1111122 
NERRS,ioos:station:NOAA.NERRS:marmbwq:1,2015-05-21T00:30:00Z,28.1384,-96.8285,16.0,1111122 